Location: Lecco
(45.8566°N, 9.3977°E)
Time: 12:30:31
(UTC+02:00)

Explorer 11/Cluster Stage 4 - Visible Passes

Search period start: 07 August 2020 00:00
Search period end: 17 August 2020 00:00
Orbit: 467 x 1258 km, 28.8° (Epoch: 06 August)

Date Brightness Start Highest point End Pass type
(mag) Time Alt. Az. Time Alt. Az. Time Alt. Az.
07 Aug 8.6 05:04:06 11° SSW 05:04:51 11° SSW 05:06:37 10° S visible
08 Aug 8.7 04:54:16 11° SSW 04:54:16 11° SSW 04:55:36 10° S visible
11 Aug 9.2 22:41:39 10° SSW 22:42:50 12° S 22:42:50 12° S visible
12 Aug 8.9 22:30:10 10° SSW 22:33:14 16° S 22:33:14 16° S visible
13 Aug 8.8 22:18:48 10° SSW 22:23:25 18° SSE 22:23:25 18° SSE visible
14 Aug 8.7 22:07:32 10° SSW 22:12:32 18° SSE 22:13:25 18° SSE visible
14 Aug 9.3 23:54:37 10° SW 23:55:33 13° SW 23:55:33 13° SW visible
15 Aug 8.7 21:56:21 10° SSW 22:01:23 19° SSE 22:03:15 18° SSE visible
15 Aug 9.1 23:43:35 10° SW 23:45:23 15° SW 23:45:23 15° SW visible
16 Aug 8.7 21:45:15 10° SSW 21:50:16 19° SSE 21:52:58 16° SE visible
16 Aug 9.0 23:32:36 10° SW 23:35:06 17° SSW 23:35:06 17° SSW visible
